Location: Berlin
(38.3226°N, 75.2177°W)
Time: 17:26:07
(UTC+00:00)

Cosmos 1726 Rocket - Pass Details

Date: 26 October 2020
Orbit: 603 x 629 km, 82.5° (Epoch: 03 December)

Event Time Altitude Azimuth Distance (km) Brightness Sun altitude
Rises 10:31:17 0° 346° (NNW) 2,919 6.8 -10.4°
Reaches altitude 10° 10:33:35 10° 340° (NNW) 2,010 5.9 -10.0°
Maximum altitude 10:37:50 46° 268° (W) 843 3.8 -9.2°
Drops below altitude 10° 10:42:05 10° 194° (SSW) 1,999 6.1 -8.3°
Sets 10:44:22 0° 189° (S) 2,901 7.0 -7.9°
